Tillbaka till svenska Fidonet
English   Information   Debug  
FILM   0/18
FNEWS_PUBLISH   5034
FN_SYSOP   42247
FN_SYSOP_OLD1   71952
FTP_FIDO   0/2
FTSC_PUBLIC   0/13979
FUNNY   0/4886
GENEALOGY.EUR   0/71
GET_INFO   105
GOLDED   0/408
HAM   0/16786
HOLYSMOKE   0/6791
HOT_SITES   0/1
HTMLEDIT   0/71
HUB203   466
HUB_100   264
HUB_400   39
HUMOR   0/29
IC   0/2851
INTERNET   0/424
INTERUSER   0/3
IP_CONNECT   719
JAMNNTPD   0/233
JAMTLAND   0/47
KATTY_KORNER   0/41
LAN   0/16
LINUX-USER   0/19
LINUXHELP   0/1155
LINUX   0/22427
LINUX_BBS   0/957
mail   18.68
mail_fore_ok   249
MENSA   0/341
MODERATOR   0/102
MONTE   0/992
MOSCOW_OKLAHOMA   0/1245
MUFFIN   0/783
MUSIC   0/321
N203_STAT   938
N203_SYSCHAT   313
NET203   321
NET204   69
NET_DEV   0/10
NORD.ADMIN   0/101
NORD.CHAT   0/2572
NORD.FIDONET   189
NORD.HARDWARE   0/28
NORD.KULTUR   0/114
NORD.PROG   0/32
NORD.SOFTWARE   0/88
NORD.TEKNIK   0/58
NORD   0/453
OCCULT_CHAT   0/93
OS2BBS   0/787
OS2DOSBBS   0/580
OS2HW   0/42
OS2INET   0/37
OS2LAN   0/134
OS2PROG   0/36
OS2REXX   0/113
OS2USER-L   207
OS2   0/4835
OSDEBATE   0/18996
PASCAL   0/490
PERL   0/457
PHP   0/45
POINTS   0/405
POLITICS   0/29554
POL_INC   0/14731
PSION   103
R20_ADMIN   1133
R20_AMATORRADIO   0/2
R20_BEST_OF_FIDONET   16
R20_CHAT   0/897
R20_DEPP   0/3
R20_DEV   400
R20_ECHO2   1933
R20_ECHOPRES   0/35
R20_ESTAT   0/719
R20_FIDONETPROG...
...RAM.MYPOINT
  0/2
R20_FIDONETPROGRAM   0/22
R20_FIDONET   0/248
R20_FILEFIND   0/24
R20_FILEFOUND   0/22
R20_HIFI   0/3
R20_INFO2   3826
R20_INTERNET   0/12940
R20_INTRESSE   0/60
R20_INTR_KOM   0/99
R20_KANDIDAT.CHAT   42
R20_KANDIDAT   28
R20_KOM_DEV   112
R20_KONTROLL   0/13360
R20_KORSET   0/18
R20_LOKALTRAFIK   0/24
R20_MODERATOR   0/1852
R20_NC   76
R20_NET200   245
R20_NETWORK.OTH...
...ERNETS
  0/13
R20_OPERATIVSYS...
...TEM.LINUX
  0/44
R20_PROGRAMVAROR   0/1
R20_REC2NEC   534
R20_SFOSM   0/341
R20_SF   0/108
R20_SPRAK.ENGLISH   0/1
R20_SQUISH   107
R20_TEST   2
R20_WORST_OF_FIDONET   20
RAR   0/9
RA_MULTI   106
RA_UTIL   0/162
REGCON.EUR   0/2072
REGCON   0/13
SCIENCE   0/1206
SF   0/239
SHAREWARE_SUPPORT   0/5146
SHAREWRE   0/14
SIMPSONS   0/169
STATS_OLD1   0/2539.065
STATS_OLD2   0/2530
STATS_OLD3   0/2395.095
STATS_OLD4   0/1692.25
SURVIVOR   0/495
SYSOPS_CORNER   0/3
SYSOP   0/84
TAGLINES   0/112
TEAMOS2   0/4530
TECH   0/2617
TEST.444   0/105
TRAPDOOR   0/19
TREK   0/755
TUB   0/290
UFO   0/40
UNIX   0/1316
USA_EURLINK   0/102
USR_MODEMS   0/1
VATICAN   0/2740
VIETNAM_VETS   0/14
VIRUS   0/378
VIRUS_INFO   0/201
VISUAL_BASIC   0/473
WHITEHOUSE   0/5187
WIN2000   0/101
WIN32   0/30
WIN95   0/4291
WIN95_OLD1   0/70272
WINDOWS   0/1517
WWB_SYSOP   0/419
WWB_TECH   0/810
ZCC-PUBLIC   0/1
ZEC   4

 
4DOS   0/134
ABORTION   0/7
ALASKA_CHAT   0/506
ALLFIX_FILE   0/1313
ALLFIX_FILE_OLD1   0/7997
ALT_DOS   0/152
AMATEUR_RADIO   0/1039
AMIGASALE   0/14
AMIGA   0/331
AMIGA_INT   0/1
AMIGA_PROG   0/20
AMIGA_SYSOP   0/26
ANIME   0/15
ARGUS   0/924
ASCII_ART   0/340
ASIAN_LINK   0/651
ASTRONOMY   0/417
AUDIO   0/92
AUTOMOBILE_RACING   0/105
BABYLON5   0/17862
BAG   135
BATPOWER   0/361
BBBS.ENGLISH   0/382
BBSLAW   0/109
BBS_ADS   0/5290
BBS_INTERNET   0/507
BIBLE   0/3563
BINKD   0/1119
BINKLEY   0/215
BLUEWAVE   0/2173
CABLE_MODEMS   0/25
CBM   0/46
CDRECORD   0/66
CDROM   0/20
CLASSIC_COMPUTER   0/378
COMICS   0/15
CONSPRCY   0/899
COOKING   42382
COOKING_OLD1   0/24719
COOKING_OLD2   0/40862
COOKING_OLD3   0/37489
COOKING_OLD4   0/35496
COOKING_OLD5   9370
C_ECHO   0/189
C_PLUSPLUS   0/31
DIRTY_DOZEN   0/201
DOORGAMES   0/2388
DOS_INTERNET   0/196
duplikat   6102
ECHOLIST   0/18295
EC_SUPPORT   0/318
ELECTRONICS   0/359
ELEKTRONIK.GER   1534
ENET.LINGUISTIC   0/13
ENET.POLITICS   0/4
ENET.SOFT   0/11701
ENET.SYSOP   34388
ENET.TALKS   0/32
ENGLISH_TUTOR   0/2000
EVOLUTION   0/1335
FDECHO   0/217
FDN_ANNOUNCE   0/7068
FIDONEWS   25217
FIDONEWS_OLD1   0/49742
FIDONEWS_OLD2   0/35949
FIDONEWS_OLD3   0/30874
FIDONEWS_OLD4   0/37224
FIDO_SYSOP   12977
FIDO_UTIL   0/180
FILEFIND   0/209
FILEGATE   0/212
Möte HAM, 16786 texter
 lista första sista föregående nästa
Text 531, 777 rader
Skriven 2005-08-19 00:31:02 av Amsat List (1:323/120.0)
Ärende: 
========
SB KEPS @ AMSAT  $ORB05230.O
Orbital Elements  05230.OSCAR

HR AMSAT ORBITAL ELEMENTS FOR OSCAR SATELLITES
FROM WA5QGD FORT WORTH,TX August 18, 2005
Send SUBSCRIBE KEPS/UNSUBSCRIBE KEPS to majordomo@amsat.org only
BID: ORB05230.O
TO ALL RADIO AMATEURS BT

Satellite: AO-07
Catalog number: 07530
Epoch time:      05229.68274899
Element set:    0470
Inclination:      101.6196 deg
RA of node:       274.6090 deg
Eccentricity:    0.0012224
Arg of perigee:   115.9309 deg
Mean anomaly:     244.3021 deg
Mean motion:   12.53570710 rev/day
Decay rate:       -2.8e-07 rev/day^2
Epoch rev:           40735
Checksum:              283

Satellite: AO-10
Catalog number: 14129
Epoch time:      05229.30203539
Element set:     205
Inclination:      027.4300 deg
RA of node:       017.6789 deg
Eccentricity:    0.6029346
Arg of perigee:   213.8730 deg
Mean anomaly:     086.5534 deg
Mean motion:   02.05865613 rev/day
Decay rate:       -4.7e-07 rev/day^2
Epoch rev:           16679
Checksum:              295

Satellite: UO-11
Catalog number: 14781
Epoch time:      05229.76299289
Element set:    0856
Inclination:      098.2046 deg
RA of node:       228.5839 deg
Eccentricity:    0.0009757
Arg of perigee:   154.3891 deg
Mean anomaly:     205.7816 deg
Mean motion:   14.79287493 rev/day
Decay rate:       1.40e-06 rev/day^2
Epoch rev:           15090
Checksum:              350

Satellite: RS-10/11
Catalog number: 18129
Epoch time:      05230.85209893
Element set:     763
Inclination:      082.9241 deg
RA of node:       191.7806 deg
Eccentricity:    0.0010501
Arg of perigee:   207.1253 deg
Mean anomaly:     152.9334 deg
Mean motion:   13.72762863 rev/day
Decay rate:        4.0e-07 rev/day^2
Epoch rev:           90967
Checksum:              297

Satellite: FO-20
Catalog number: 20480
Epoch time:      05229.82023086
Element set:     985
Inclination:      099.0316 deg
RA of node:       032.3333 deg
Eccentricity:    0.0540854
Arg of perigee:   099.9018 deg
Mean anomaly:     266.3551 deg
Mean motion:   12.83347912 rev/day
Decay rate:       -2.4e-07 rev/day^2
Epoch rev:           72740
Checksum:              298

Satellite: RS-12/13
Catalog number: 21089
Epoch time:      05229.53734598
Element set:     992
Inclination:      082.9187 deg
RA of node:       225.3490 deg
Eccentricity:    0.0027551
Arg of perigee:   269.2028 deg
Mean anomaly:     090.5969 deg
Mean motion:   13.74453214 rev/day
Decay rate:        1.7e-07 rev/day^2
Epoch rev:           72892
Checksum:              337

Satellite: RS-15
Catalog number: 23439
Epoch time:      05229.86777807
Element set:    0895
Inclination:      064.8210 deg
RA of node:       007.7928 deg
Eccentricity:    0.0165304
Arg of perigee:   305.5797 deg
Mean anomaly:     052.9817 deg
Mean motion:   11.27550663 rev/day
Decay rate:       -3.9e-07 rev/day^2
Epoch rev:           43834
Checksum:              340

Satellite: FO-29
Catalog number: 24278
Epoch time:      05229.66494833
Element set:      27
Inclination:      098.5386 deg
RA of node:       270.9118 deg
Eccentricity:    0.0351147
Arg of perigee:   017.0850 deg
Mean anomaly:     344.1768 deg
Mean motion:   13.52913657 rev/day
Decay rate:       -6.6e-07 rev/day^2
Epoch rev:           44450
Checksum:              329

Satellite: SO-33
Catalog number: 25509
Epoch time:      05229.91344287
Element set:    0444
Inclination:      031.4337 deg
RA of node:       043.6803 deg
Eccentricity:    0.0355598
Arg of perigee:   345.5579 deg
Mean anomaly:     013.5102 deg
Mean motion:   14.28025355 rev/day
Decay rate:       1.61e-06 rev/day^2
Epoch rev:           35565
Checksum:              302

Satellite: AO-40
Catalog number: 26609
Epoch time:      05229.43749634
Element set:     591
Inclination:      007.6149 deg
RA of node:       285.9917 deg
Eccentricity:    0.7927424
Arg of perigee:   071.8570 deg
Mean anomaly:     353.1035 deg
Mean motion:   01.25583528 rev/day
Decay rate:      -3.15e-06 rev/day^2
Epoch rev:            2203
Checksum:              317

Satellite: VO-52
Catalog number: 28650
Epoch time:      05228.07895978
Element set:    0106
Inclination:      097.9061 deg
RA of node:       300.9909 deg
Eccentricity:    0.0026419
Arg of perigee:   274.2746 deg
Mean anomaly:     085.5451 deg
Mean motion:   14.80901824 rev/day
Decay rate:       -5.8e-07 rev/day^2
Epoch rev:           01522
Checksum:              321

/EX
SB KEPS @ AMSAT  $ORB05230.D
Orbital Elements  05230.MICROS

HR AMSAT ORBITAL ELEMENTS FOR THE MICROSATS
FROM WA5QGD FORT WORTH,TX August 18, 2005
Send SUBSCRIBE KEPS/UNSUBSCRIBE KEPS to majordomo@amsat.org only
BID: ORB05230.D
TO ALL RADIO AMATEURS BT

Satellite: UO-14
Catalog number: 20437
Epoch time:      05229.63655590
Element set:    0853
Inclination:      098.1930 deg
RA of node:       235.9192 deg
Eccentricity:    0.0011083
Arg of perigee:   016.4025 deg
Mean anomaly:     343.7510 deg
Mean motion:   14.31421682 rev/day
Decay rate:       -9.3e-07 rev/day^2
Epoch rev:           81282
Checksum:              286

Satellite: AO-16
Catalog number: 20439
Epoch time:      05229.62977694
Element set:     536
Inclination:      098.2032 deg
RA of node:       251.4368 deg
Eccentricity:    0.0011697
Arg of perigee:   023.8962 deg
Mean anomaly:     336.2761 deg
Mean motion:   14.31686780 rev/day
Decay rate:       -2.8e-07 rev/day^2
Epoch rev:           81288
Checksum:              335

Satellite: WO-18
Catalog number: 20441
Epoch time:      05229.77108344
Element set:    0736
Inclination:      098.2121 deg
RA of node:       256.0230 deg
Eccentricity:    0.0012282
Arg of perigee:   023.7967 deg
Mean anomaly:     336.3775 deg
Mean motion:   14.31759503 rev/day
Decay rate:        1.0e-07 rev/day^2
Epoch rev:           81296
Checksum:              288

